{"data":{"norad_id":47693,"intl_designator":"2021-014C","name":"YAOGAN-31 03B","alt_names":[],"object_type":"PAYLOAD","status":"ACTIVE","operator":null,"country":"PRC","launch_date":"2021-02-24","launch_site_code":"JSC","launch_vehicle":null,"mission":null,"orbit_class":"UNKNOWN","rcs_meters":null,"size_class":null,"mass_kg":null,"dimensions":null,"purposes":[],"wikipedia_slug":null,"has_3d_model":false,"image_url":null,"decayed_at":null,"tle_current":{"epoch":"2026-09-20T21:30:01.903104Z","epoch_age_seconds":45159,"freshness":"FRESH","line1":"1 47693U 21014C   26263.89585536 -.00000082  00000+0  12660-4 0  9994","line2":"2 47693  63.4027 312.6552 0185533   1.2999 358.8472 13.45453803273557","mean_motion":13.45453803,"eccentricity":0.018553300000000002,"inclination_deg":63.4027,"raan_deg":312.6552,"arg_perigee_deg":1.2999,"mean_anomaly_deg":358.8472,"bstar":1.266e-5,"rev_number":27355,"period_min":107.02708608718,"perigee_km":950.49137957118,"apogee_km":1227.5726330202,"semimajor_km":7467.1690062957,"source":"CELESTRAK","updated_at":"2026-09-21T09:00:07.561812Z"}}}